QPF
0.01 0.01 0.00 0.00 0.00 0.00 0.00 0.00 0.00 0.00 0.00 0.00 0.00 0.00 0.01 0.00 0.01 0.01 0.01 0.00 0.00 0.01 0.01 0.01 0.03 0.05 0.06 0.06 0.06 0.05 0.11 0.17 0.11 0.08 0.07 0.07 0.05 0.05 0.06 0.06 0.07 0.06 0.06 0.06 0.06 0.03 0.02 0.03 0.03
0.01 0.01 0.00 0.00 0.01 0.01 0.00 0.00 0.00 0.00 0.00 0.00 0.00 0.00 0.00 0.00 0.00 0.00 0.01 0.01 0.00 0.01 0.01 0.01 0.03 0.05 0.06 0.07 0.07 0.06 0.07 0.11 0.10 0.08 0.06 0.08 0.07 0.07 0.06 0.05 0.06 0.07 0.07 0.06 0.06 0.04 0.03 0.04 0.04
0.00 0.00 0.01 0.01 0.01 0.01 0.00 0.00 0.00 0.00 0.00 0.00 0.00 0.00 0.00 0.00 0.00 0.00 0.00 0.00 0.00 0.00 0.01 0.01 0.02 0.04 0.05 0.06 0.07 0.07 0.05 0.06 0.08 0.07 0.07 0.07 0.07 0.07 0.06 0.05 0.05 0.05 0.05 0.05 0.05 0.04 0.04 0.03 0.03
0.00 0.00 0.01 0.01 0.00 0.00 0.00 0.00 0.00 0.00 0.00 0.00 0.00 0.00 0.00 0.00 0.00 0.00 0.00 0.00 0.00 0.00 0.01 0.01 0.02 0.04 0.05 0.05 0.06 0.07 0.05 0.05 0.06 0.06 0.05 0.06 0.06 0.05 0.05 0.05 0.04 0.03 0.03 0.03 0.03 0.03 0.03 0.03 0.02
0.01 0.00 0.00 0.00 0.00 0.00 0.00 0.00 0.00 0.00 0.00 0.00 0.00 0.00 0.00 0.00 0.00 0.00 0.01 0.00 0.00 0.00 0.01 0.02 0.02 0.04 0.05 0.05 0.06 0.06 0.05 0.04 0.04 0.05 0.05 0.04 0.03 0.03 0.04 0.04 0.04 0.04 0.03 0.02 0.03 0.03 0.03 0.03 0.02
0.02 0.01 0.00 0.00 0.00 0.00 0.00 0.00 0.00 0.00 0.00 0.00 0.00 0.00 0.00 0.00 0.00 0.01 0.01 0.01 0.00 0.00 0.01 0.01 0.02 0.04 0.05 0.05 0.06 0.06 0.06 0.05 0.04 0.04 0.05 0.04 0.05 0.05 0.04 0.03 0.03 0.05 0.03 0.03 0.04 0.03 0.03 0.03 0.02
0.02 0.02 0.01 0.00 0.00 0.00 0.00 0.00 0.00 0.00 0.00 0.00 0.00 0.00 0.00 0.01 0.01 0.01 0.02 0.01 0.00 0.01 0.01 0.01 0.02 0.04 0.05 0.05 0.05 0.06 0.06 0.05 0.04 0.03 0.03 0.04 0.06 0.05 0.04 0.03 0.04 0.04 0.03 0.03 0.03 0.04 0.06 0.05 0.04
0.01 0.01 0.01 0.00 0.00 0.00 0.00 0.00 0.00 0.00 0.00 0.00 0.00 0.00 0.00 0.01 0.01 0.02 0.03 0.03 0.01 0.01 0.01 0.01 0.02 0.04 0.05 0.05 0.06 0.07 0.05 0.05 0.04 0.03 0.02 0.03 0.04 0.04 0.05 0.04 0.04 0.04 0.03 0.03 0.03 0.03 0.06 0.08 0.06
0.01 0.01 0.01 0.00 0.00 0.00 0.00 0.00 0.00 0.00 0.00 0.00 0.00 0.00 0.00 0.00 0.01 0.02 0.03 0.04 0.04 0.02 0.01 0.01 0.03 0.04 0.05 0.05 0.05 0.06 0.04 0.04 0.05 0.04 0.03 0.02 0.03 0.03 0.03 0.03 0.03 0.03 0.02 0.03 0.02 0.02 0.03 0.06 0.05
0.00 0.00 0.00 0.00 0.00 0.00 0.01 0.01 0.00 0.00 0.00 0.01 0.01 0.00 0.00 0.00 0.01 0.02 0.04 0.04 0.04 0.05 0.03 0.02 0.03 0.05 0.05 0.05 0.05 0.05 0.05 0.05 0.04 0.05 0.04 0.03 0.03 0.03 0.03 0.03 0.02 0.02 0.03 0.03 0.02 0.03 0.02 0.03 0.03
0.00 0.00 0.00 0.00 0.00 0.00 0.01 0.01 0.01 0.01 0.00 0.00 0.00 0.00 0.00 0.01 0.01 0.02 0.03 0.04 0.04 0.05 0.05 0.03 0.03 0.05 0.06 0.07 0.07 0.07 0.07 0.07 0.07 0.06 0.05 0.04 0.03 0.03 0.03 0.02 0.02 0.02 0.03 0.04 0.03 0.03 0.03 0.03 0.02
0.00 0.00 0.00 0.00 0.00 0.00 0.01 0.01 0.01 0.01 0.01 0.00 0.00 0.01 0.01 0.01 0.01 0.02 0.03 0.04 0.05 0.05 0.05 0.05 0.04 0.06 0.08 0.09 0.10 0.08 0.07 0.06 0.07 0.08 0.07 0.05 0.04 0.03 0.03 0.02 0.02 0.02 0.03 0.04 0.04 0.03 0.03 0.03 0.03
0.00 0.00 0.00 0.00 0.00 0.00 0.01 0.01 0.01 0.01 0.00 0.00 0.01 0.01 0.01 0.02 0.02 0.02 0.04 0.04 0.05 0.05 0.05 0.06 0.07 0.09 0.10 0.12 0.11 0.08 0.06 0.05 0.04 0.04 0.06 0.06 0.06 0.05 0.04 0.03 0.02 0.02 0.02 0.03 0.04 0.03 0.02 0.03 0.04
0.00 0.00 0.00 0.00 0.00 0.00 0.01 0.01 0.01 0.02 0.01 0.01 0.01 0.01 0.02 0.03 0.03 0.04 0.04 0.05 0.05 0.05 0.05 0.06 0.08 0.11 0.12 0.13 0.12 0.08 0.06 0.06 0.05 0.04 0.04 0.04 0.04 0.04 0.04 0.04 0.03 0.02 0.02 0.03 0.04 0.04 0.04 0.03 0.04
0.00 0.00 0.00 0.00 0.00 0.00 0.00 0.02 0.02 0.02 0.03 0.02 0.02 0.02 0.02 0.03 0.04 0.03 0.04 0.04 0.04 0.05 0.05 0.06 0.07 0.09 0.12 0.13 0.13 0.10 0.07 0.06 0.05 0.05 0.04 0.04 0.04 0.04 0.03 0.04 0.04 0.04 0.03 0.03 0.04 0.05 0.06 0.04 0.03
0.01 0.01 0.01 0.00 0.00 0.00 0.01 0.02 0.04 0.02 0.03 0.03 0.02 0.03 0.02 0.02 0.03 0.03 0.03 0.03 0.03 0.04 0.06 0.07 0.07 0.08 0.11 0.12 0.11 0.10 0.08 0.08 0.06 0.05 0.04 0.03 0.03 0.03 0.03 0.03 0.03 0.03 0.04 0.04 0.04 0.04 0.06 0.07 0.05
0.02 0.01 0.01 0.00 0.01 0.01 0.01 0.01 0.04 0.04 0.02 0.03 0.02 0.01 0.01 0.01 0.02 0.03 0.02 0.02 0.03 0.04 0.05 0.06 0.07 0.07 0.09 0.11 0.10 0.10 0.08 0.07 0.07 0.05 0.03 0.02 0.02 0.02 0.02 0.03 0.03 0.02 0.03 0.04 0.04 0.03 0.04 0.06 0.07
0.02 0.01 0.01 0.01 0.01 0.02 0.01 0.02 0.02 0.04 0.04 0.02 0.02 0.01 0.02 0.02 0.02 0.02 0.03 0.02 0.02 0.02 0.03 0.04 0.06 0.06 0.08 0.10 0.11 0.10 0.07 0.05 0.05 0.04 0.02 0.01 0.02 0.02 0.03 0.03 0.04 0.04 0.03 0.03 0.03 0.04 0.04 0.05 0.06
0.02 0.02 0.01 0.01 0.01 0.02 0.02 0.02 0.03 0.03 0.03 0.03 0.02 0.03 0.03 0.03 0.03 0.03 0.03 0.02 0.02 0.02 0.03 0.03 0.04 0.06 0.07 0.10 0.12 0.11 0.08 0.06 0.04 0.04 0.02 0.01 0.01 0.01 0.02 0.03 0.03 0.04 0.04 0.03 0.03 0.04 0.05 0.06 0.06
0.02 0.02 0.01 0.01 0.01 0.01 0.03 0.02 0.02 0.02 0.02 0.02 0.02 0.03 0.03 0.03 0.03 0.04 0.04 0.03 0.02 0.02 0.03 0.03 0.04 0.05 0.07 0.09 0.11 0.10 0.07 0.06 0.04 0.03 0.03 0.02 0.01 0.01 0.01 0.02 0.02 0.03 0.04 0.03 0.03 0.04 0.04 0.07 0.07
0.01 0.02 0.02 0.01 0.01 0.01 0.01 0.01 0.01 0.01 0.01 0.01 0.02 0.02 0.02 0.03 0.03 0.03 0.03 0.03 0.02 0.02 0.02 0.02 0.03 0.04 0.06 0.08 0.09 0.09 0.07 0.06 0.05 0.04 0.03 0.03 0.02 0.01 0.01 0.01 0.01 0.02 0.02 0.03 0.03 0.04 0.05 0.06 0.08
0.01 0.01 0.01 0.01 0.01 0.01 0.01 0.01 0.01 0.00 0.00 0.00 0.01 0.01 0.02 0.02 0.02 0.03 0.03 0.02 0.02 0.02 0.03 0.03 0.03 0.05 0.05 0.07 0.09 0.08 0.06 0.05 0.04 0.04 0.02 0.02 0.02 0.01 0.02 0.01 0.01 0.01 0.02 0.02 0.03 0.04 0.05 0.05 0.08
0.01 0.01 0.01 0.01 0.01 0.01 0.00 0.01 0.00 0.00 0.00 0.00 0.00 0.01 0.01 0.01 0.01 0.02 0.02 0.02 0.02 0.03 0.03 0.02 0.03 0.05 0.06 0.07 0.08 0.09 0.05 0.03 0.03 0.04 0.02 0.02 0.03 0.03 0.02 0.02 0.02 0.02 0.02 0.02 0.02 0.03 0.04 0.05 0.06
0.01 0.01 0.01 0.01 0.01 0.01 0.00 0.00 0.00 0.01 0.02 0.01 0.00 0.00 0.00 0.00 0.01 0.01 0.02 0.02 0.02 0.03 0.03 0.02 0.03 0.05 0.08 0.08 0.08 0.10 0.06 0.03 0.03 0.04 0.03 0.03 0.04 0.04 0.04 0.02 0.02 0.02 0.02 0.02 0.02 0.03 0.04 0.05 0.06
0.01 0.02 0.03 0.02 0.02 0.01 0.00 0.00 0.01 0.02 0.02 0.01 0.01 0.00 0.00 0.00 0.00 0.01 0.01 0.01 0.01 0.02 0.02 0.02 0.02 0.05 0.08 0.09 0.10 0.11 0.08 0.04 0.03 0.03 0.03 0.03 0.03 0.04 0.04 0.03 0.02 0.02 0.02 0.02 0.02 0.03 0.04 0.05 0.07
0.01 0.01 0.02 0.02 0.01 0.00 0.00 0.01 0.01 0.02 0.02 0.02 0.01 0.01 0.00 0.01 0.01 0.00 0.00 0.01 0.01 0.02 0.02 0.02 0.02 0.04 0.07 0.09 0.10 0.11 0.09 0.04 0.03 0.04 0.03 0.02 0.02 0.03 0.04 0.04 0.02 0.01 0.02 0.02 0.02 0.03 0.03 0.04 0.07
0.01 0.01 0.01 0.01 0.01 0.00 0.00 0.01 0.01 0.00 0.01 0.01 0.02 0.01 0.01 0.01 0.01 0.01 0.00 0.01 0.01 0.01 0.02 0.02 0.02 0.03 0.06 0.09 0.10 0.09 0.08 0.05 0.04 0.04 0.04 0.03 0.02 0.02 0.03 0.05 0.03 0.02 0.01 0.02 0.02 0.02 0.03 0.04 0.06
0.01 0.01 0.01 0.02 0.01 0.01 0.00 0.00 0.01 0.00 0.00 0.00 0.01 0.01 0.01 0.01 0.01 0.01 0.01 0.00 0.01 0.01 0.01 0.02 0.02 0.04 0.05 0.06 0.09 0.09 0.07 0.05 0.05 0.05 0.04 0.04 0.03 0.02 0.03 0.04 0.04 0.03 0.02 0.01 0.02 0.02 0.03 0.03 0.04
0.01 0.02 0.01 0.01 0.01 0.01 0.01 0.01 0.01 0.00 0.00 0.00 0.01 0.01 0.02 0.02 0.01 0.02 0.02 0.01 0.01 0.01 0.01 0.01 0.02 0.03 0.04 0.05 0.07 0.09 0.08 0.06 0.05 0.06 0.04 0.04 0.04 0.04 0.03 0.03 0.04 0.03 0.02 0.02 0.02 0.02 0.02 0.03 0.03
0.01 0.01 0.01 0.02 0.01 0.01 0.01 0.01 0.00 0.00 0.00 0.01 0.01 0.01 0.02 0.02 0.02 0.02 0.02 0.02 0.02 0.02 0.01 0.01 0.01 0.02 0.03 0.04 0.05 0.07 0.09 0.09 0.07 0.06 0.05 0.04 0.04 0.04 0.04 0.04 0.04 0.04 0.03 0.03 0.03 0.03 0.03 0.03 0.03
MSLP
1014.50 1014.19 1014.02 1014.01 1014.14 1014.38 1014.68 1014.99 1015.24 1015.40 1015.44 1015.35 1015.14 1014.84 1014.47 1014.05 1013.61 1013.15 1012.69 1012.24 1011.82 1011.44 1011.14 1010.94 1010.85 1010.88 1011.03 1011.26 1011.54 1011.84 1012.13 1012.39 1012.62 1012.82 1013.00 1013.19 1013.39 1013.62 1013.86 1014.12 1014.39 1014.66 1014.94 1015.21 1015.48 1015.73 1015.96 1016.15 1016.30
1014.66 1014.34 1014.17 1014.15 1014.28 1014.53 1014.85 1015.18 1015.48 1015.68 1015.76 1015.71 1015.55 1015.27 1014.92 1014.51 1014.06 1013.60 1013.14 1012.68 1012.25 1011.86 1011.53 1011.29 1011.15 1011.12 1011.19 1011.35 1011.58 1011.85 1012.14 1012.43 1012.71 1012.97 1013.22 1013.44 1013.65 1013.86 1014.06 1014.26 1014.49 1014.74 1015.02 1015.33 1015.66 1015.98 1016.29 1016.54 1016.73
1014.94 1014.62 1014.45 1014.42 1014.54 1014.78 1015.09 1015.41 1015.71 1015.92 1016.02 1015.99 1015.84 1015.58 1015.23 1014.82 1014.37 1013.92 1013.46 1013.02 1012.61 1012.24 1011.92 1011.66 1011.49 1011.40 1011.39 1011.47 1011.63 1011.85 1012.12 1012.42 1012.74 1013.05 1013.34 1013.61 1013.84 1014.03 1014.20 1014.37 1014.55 1014.78 1015.05 1015.39 1015.76 1016.15 1016.53 1016.84 1017.09
1015.38 1015.09 1014.93 1014.90 1015.00 1015.20 1015.47 1015.76 1016.01 1016.19 1016.27 1016.22 1016.06 1015.78 1015.42 1015.00 1014.56 1014.12 1013.69 1013.29 1012.93 1012.60 1012.32 1012.08 1011.89 1011.75 1011.67 1011.66 1011.72 1011.86 1012.08 1012.36 1012.69 1013.04 1013.38 1013.69 1013.95 1014.16 1014.33 1014.47 1014.63 1014.84 1015.11 1015.46 1015.86 1016.30 1016.73 1017.10 1017.40
1016.00 1015.78 1015.65 1015.62 1015.69 1015.85 1016.05 1016.26 1016.44 1016.55 1016.56 1016.46 1016.25 1015.93 1015.54 1015.11 1014.66 1014.23 1013.84 1013.50 1013.21 1012.95 1012.73 1012.53 1012.34 1012.16 1012.01 1011.90 1011.86 1011.90 1012.03 1012.26 1012.58 1012.94 1013.32 1013.68 1014.00 1014.26 1014.46 1014.62 1014.78 1014.98 1015.25 1015.60 1016.02 1016.47 1016.93 1017.34 1017.68
1016.79 1016.64 1016.56 1016.54 1016.59 1016.68 1016.79 1016.90 1016.98 1016.99 1016.91 1016.73 1016.44 1016.07 1015.63 1015.17 1014.71 1014.30 1013.94 1013.66 1013.44 1013.27 1013.12 1012.97 1012.80 1012.61 1012.40 1012.20 1012.04 1011.96 1011.99 1012.14 1012.41 1012.78 1013.19 1013.61 1014.00 1014.33 1014.60 1014.82 1015.02 1015.24 1015.50 1015.84 1016.25 1016.70 1017.15 1017.58 1017.93
1017.65 1017.60 1017.57 1017.57 1017.58 1017.61 1017.62 1017.62 1017.57 1017.46 1017.27 1016.99 1016.62 1016.19 1015.70 1015.20 1014.72 1014.31 1013.98 1013.74 1013.59 1013.50 1013.43 1013.35 1013.22 1013.02 1012.78 1012.50 1012.24 1012.04 1011.95 1012.01 1012.22 1012.56 1013.00 1013.47 1013.95 1014.38 1014.74 1015.05 1015.31 1015.56 1015.84 1016.17 1016.54 1016.96 1017.38 1017.78 1018.14
1018.51 1018.53 1018.55 1018.55 1018.53 1018.48 1018.39 1018.27 1018.09 1017.86 1017.56 1017.19 1016.75 1016.26 1015.72 1015.18 1014.69 1014.26 1013.94 1013.74 1013.63 1013.61 1013.61 1013.60 1013.52 1013.35 1013.09 1012.76 1012.42 1012.12 1011.92 1011.88 1012.01 1012.31 1012.75 1013.27 1013.83 1014.36 1014.84 1015.25 1015.59 1015.90 1016.20 1016.51 1016.85 1017.21 1017.58 1017.94 1018.27
1019.25 1019.33 1019.37 1019.36 1019.28 1019.14 1018.95 1018.70 1018.41 1018.07 1017.69 1017.25 1016.76 1016.22 1015.66 1015.09 1014.57 1014.13 1013.80 1013.60 1013.52 1013.54 1013.60 1013.66 1013.64 1013.52 1013.28 1012.94 1012.55 1012.17 1011.88 1011.73 1011.78 1012.03 1012.45 1013.00 1013.61 1014.24 1014.83 1015.34 1015.79 1016.16 1016.49 1016.80 1017.10 1017.41 1017.72 1018.03 1018.33
1019.85 1019.93 1019.96 1019.89 1019.74 1019.49 1019.18 1018.82 1018.42 1018.00 1017.55 1017.08 1016.57 1016.03 1015.46 1014.88 1014.34 1013.88 1013.52 1013.31 1013.23 1013.27 1013.38 1013.50 1013.56 1013.51 1013.32 1013.01 1012.60 1012.17 1011.80 1011.57 1011.53 1011.70 1012.08 1012.62 1013.28 1013.98 1014.66 1015.28 1015.81 1016.26 1016.64 1016.96 1017.25 1017.53 1017.79 1018.06 1018.33
1020.30 1020.34 1020.30 1020.15 1019.88 1019.51 1019.06 1018.58 1018.09 1017.60 1017.13 1016.65 1016.17 1015.65 1015.11 1014.54 1013.99 1013.50 1013.12 1012.87 1012.77 1012.82 1012.96 1013.14 1013.28 1013.31 1013.20 1012.94 1012.55 1012.11 1011.69 1011.38 1011.24 1011.33 1011.64 1012.15 1012.81 1013.55 1014.30 1015.01 1015.63 1016.17 1016.61 1016.98 1017.29 1017.56 1017.81 1018.06 1018.32
1020.66 1020.63 1020.48 1020.19 1019.78 1019.25 1018.66 1018.05 1017.46 1016.93 1016.45 1016.00 1015.57 1015.11 1014.62 1014.08 1013.54 1013.03 1012.60 1012.31 1012.18 1012.21 1012.37 1012.59 1012.81 1012.94 1012.92 1012.73 1012.39 1011.96 1011.51 1011.13 1010.91 1010.91 1011.14 1011.59 1012.22 1012.97 1013.77 1014.55 1015.26 1015.89 1016.41 1016.85 1017.22 1017.53 1017.81 1018.08 1018.35
1021.04 1020.90 1020.61 1020.16 1019.56 1018.86 1018.10 1017.35 1016.67 1016.10 1015.62 1015.21 1014.85 1014.47 1014.05 1013.56 1013.03 1012.50 1012.03 1011.68 1011.50 1011.50 1011.66 1011.92 1012.20 1012.41 1012.49 1012.38 1012.11 1011.70 1011.23 1010.81 1010.52 1010.43 1010.58 1010.96 1011.56 1012.30 1013.12 1013.96 1014.75 1015.47 1016.10 1016.63 1017.09 1017.49 1017.84 1018.17 1018.48
1021.53 1021.27 1020.83 1020.20 1019.40 1018.50 1017.56 1016.66 1015.88 1015.25 1014.78 1014.42 1014.13 1013.83 1013.48 1013.05 1012.54 1011.99 1011.47 1011.06 1010.82 1010.76 1010.90 1011.16 1011.48 1011.76 1011.91 1011.88 1011.66 1011.29 1010.83 1010.38 1010.04 1009.88 1009.97 1010.30 1010.86 1011.59 1012.43 1013.32 1014.18 1015.00 1015.73 1016.38 1016.96 1017.47 1017.93 1018.35 1018.74
1022.16 1021.81 1021.23 1020.42 1019.43 1018.32 1017.19 1016.14 1015.24 1014.55 1014.07 1013.75 1013.52 1013.30 1013.02 1012.64 1012.14 1011.57 1010.99 1010.51 1010.18 1010.05 1010.12 1010.35 1010.67 1010.98 1011.17 1011.20 1011.03 1010.69 1010.25 1009.80 1009.44 1009.26 1009.32 1009.63 1010.17 1010.91 1011.78 1012.71 1013.65 1014.54 1015.38 1016.14 1016.84 1017.48 1018.06 1018.60 1019.08
1022.90 1022.49 1021.81 1020.85 1019.68 1018.38 1017.07 1015.86 1014.85 1014.09 1013.59 1013.29 1013.12 1012.96 1012.74 1012.39 1011.89 1011.28 1010.64 1010.06 1009.62 1009.37 1009.35 1009.50 1009.77 1010.05 1010.24 1010.29 1010.15 1009.85 1009.44 1009.02 1008.69 1008.54 1008.62 1008.95 1009.53 1010.31 1011.22 1012.20 1013.19 1014.15 1015.06 1015.92 1016.72 1017.47 1018.18 1018.83 1019.42
1023.64 1023.22 1022.48 1021.42 1020.11 1018.66 1017.19 1015.83 1014.71 1013.89 1013.36 1013.07 1012.94 1012.83 1012.65 1012.32 1011.82 1011.16 1010.43 1009.73 1009.15 1008.75 1008.58 1008.60 1008.75 1008.95 1009.09 1009.11 1008.98 1008.71 1008.35 1008.00 1007.75 1007.68 1007.85 1008.27 1008.93 1009.78 1010.76 1011.79 1012.83 1013.83 1014.79 1015.70 1016.57 1017.40 1018.20 1018.95 1019.65
1024.24 1023.87 1023.12 1022.01 1020.61 1019.04 1017.45 1015.98 1014.76 1013.88 1013.33 1013.05 1012.94 1012.88 1012.74 1012.43 1011.91 1011.19 1010.36 1009.52 1008.76 1008.18 1007.80 1007.62 1007.60 1007.66 1007.69 1007.65 1007.50 1007.26 1006.97 1006.71 1006.59 1006.66 1006.98 1007.56 1008.35 1009.32 1010.38 1011.47 1012.54 1013.57 1014.53 1015.44 1016.33 1017.19 1018.04 1018.87 1019.65
1024.56 1024.28 1023.58 1022.47 1021.04 1019.40 1017.72 1016.17 1014.89 1013.96 1013.39 1013.13 1013.06 1013.05 1012.94 1012.65 1012.11 1011.34 1010.40 1009.40 1008.45 1007.63 1007.01 1006.59 1006.34 1006.20 1006.08 1005.94 1005.75 1005.53 1005.31 1005.19 1005.23 1005.49 1006.01 1006.78 1007.76 1008.87 1010.04 1011.19 1012.29 1013.30 1014.23 1015.11 1015.96 1016.81 1017.66 1018.52 1019.37
1024.54 1024.38 1023.76 1022.70 1021.28 1019.62 1017.90 1016.30 1014.97 1014.02 1013.46 1013.22 1013.20 1013.23 1013.18 1012.92 1012.37 1011.55 1010.51 1009.35 1008.19 1007.13 1006.24 1005.54 1005.03 1004.65 1004.34 1004.08 1003.82 1003.61 1003.48 1003.49 1003.72 1004.20 1004.95 1005.94 1007.12 1008.39 1009.68 1010.90 1012.02 1013.01 1013.89 1014.69 1015.47 1016.25 1017.07 1017.93 1018.80
1024.20 1024.16 1023.66 1022.68 1021.30 1019.66 1017.93 1016.30 1014.95 1013.99 1013.43 1013.23 1013.26 1013.36 1013.37 1013.16 1012.64 1011.79 1010.67 1009.38 1008.02 1006.72 1005.56 1004.57 1003.77 1003.14 1002.63 1002.21 1001.89 1001.67 1001.61 1001.76 1002.17 1002.87 1003.84 1005.06 1006.43 1007.87 1009.27 1010.57 1011.70 1012.66 1013.48 1014.20 1014.89 1015.59 1016.34 1017.16 1018.03
1023.66 1023.75 1023.37 1022.48 1021.17 1019.55 1017.82 1016.19 1014.82 1013.85 1013.30 1013.13 1013.22 1013.39 1013.48 1013.34 1012.87 1012.03 1010.87 1009.48 1007.98 1006.47 1005.06 1003.80 1002.74 1001.86 1001.14 1000.58 1000.17 999.94 999.92 1000.18 1000.74 1001.61 1002.78 1004.18 1005.72 1007.30 1008.81 1010.16 1011.32 1012.27 1013.04 1013.69 1014.29 1014.91 1015.59 1016.36 1017.20
1023.10 1023.31 1023.05 1022.26 1021.00 1019.42 1017.70 1016.04 1014.65 1013.66 1013.10 1012.95 1013.08 1013.32 1013.50 1013.45 1013.06 1012.28 1011.13 1009.71 1008.11 1006.45 1004.85 1003.38 1002.09 1000.99 1000.09 999.38 998.88 998.61 998.61 998.93 999.58 1000.56 1001.85 1003.37 1005.02 1006.70 1008.29 1009.70 1010.88 1011.84 1012.59 1013.20 1013.75 1014.31 1014.93 1015.64 1016.43
1022.69 1023.02 1022.86 1022.15 1020.95 1019.39 1017.66 1015.98 1014.54 1013.50 1012.92 1012.75 1012.90 1013.20 1013.46 1013.51 1013.23 1012.54 1011.47 1010.08 1008.46 1006.74 1005.04 1003.42 1001.97 1000.71 999.66 998.82 998.23 997.90 997.87 998.17 998.84 999.85 1001.16 1002.72 1004.40 1006.11 1007.74 1009.18 1010.40 1011.38 1012.15 1012.77 1013.31 1013.84 1014.42 1015.09 1015.84
1022.55 1022.98 1022.90 1022.27 1021.12 1019.58 1017.83 1016.10 1014.60 1013.48 1012.83 1012.62 1012.76 1013.08 1013.40 1013.56 1013.40 1012.85 1011.91 1010.62 1009.07 1007.38 1005.66 1003.99 1002.46 1001.10 999.94 999.01 998.32 997.90 997.79 998.02 998.61 999.54 1000.79 1002.27 1003.90 1005.57 1007.18 1008.63 1009.88 1010.90 1011.72 1012.39 1012.96 1013.51 1014.09 1014.73 1015.44
1022.70 1023.20 1023.20 1022.63 1021.52 1019.99 1018.22 1016.44 1014.86 1013.65 1012.90 1012.61 1012.70 1013.01 1013.38 1013.62 1013.60 1013.21 1012.44 1011.32 1009.93 1008.35 1006.71 1005.08 1003.55 1002.16 1000.95 999.94 999.16 998.63 998.40 998.49 998.92 999.69 1000.76 1002.08 1003.56 1005.12 1006.65 1008.07 1009.32 1010.39 1011.27 1012.01 1012.66 1013.26 1013.86 1014.50 1015.18
1023.02 1023.59 1023.65 1023.14 1022.08 1020.57 1018.79 1016.97 1015.31 1014.00 1013.15 1012.75 1012.76 1013.03 1013.41 1013.73 1013.83 1013.61 1013.05 1012.14 1010.96 1009.58 1008.10 1006.60 1005.14 1003.79 1002.57 1001.52 1000.65 1000.01 999.62 999.51 999.72 1000.25 1001.07 1002.14 1003.40 1004.77 1006.17 1007.51 1008.74 1009.83 1010.78 1011.60 1012.32 1012.99 1013.63 1014.28 1014.94
1023.38 1023.98 1024.09 1023.63 1022.62 1021.15 1019.40 1017.56 1015.86 1014.48 1013.53 1013.03 1012.94 1013.15 1013.51 1013.87 1014.08 1014.04 1013.68 1013.02 1012.10 1010.96 1009.70 1008.38 1007.07 1005.81 1004.63 1003.56 1002.63 1001.86 1001.30 1000.98 1000.93 1001.17 1001.69 1002.46 1003.45 1004.58 1005.79 1007.01 1008.18 1009.26 1010.23 1011.11 1011.89 1012.61 1013.29 1013.95 1014.60
1023.57 1024.17 1024.30 1023.89 1022.95 1021.56 1019.87 1018.09 1016.39 1014.98 1013.96 1013.38 1013.20 1013.34 1013.67 1014.05 1014.34 1014.44 1014.29 1013.87 1013.21 1012.35 1011.34 1010.25 1009.11 1007.98 1006.87 1005.82 1004.84 1003.98 1003.26 1002.72 1002.42 1002.37 1002.58 1003.04 1003.73 1004.59 1005.58 1006.63 1007.69 1008.71 1009.67 1010.55 1011.35 1012.09 1012.77 1013.42 1014.05
1023.50 1024.04 1024.17 1023.80 1022.94 1021.66 1020.09 1018.41 1016.79 1015.42 1014.39 1013.76 1013.51 1013.58 1013.87 1014.24 1014.58 1014.79 1014.81 1014.61 1014.20 1013.60 1012.85 1011.99 1011.06 1010.08 1009.07 1008.06 1007.07 1006.13 1005.29 1004.58 1004.06 1003.75 1003.69 1003.86 1004.27 1004.87 1005.62 1006.48 1007.39 1008.29 1009.17 1009.99 1010.75 1011.45 1012.10 1012.70 1013.27
Thickness
5694 5698 5700 5693 5679 5670 5672 5688 5698 5696 5695 5696 5698 5698 5692 5684 5680 5670 5675 5683 5686 5687 5688 5688 5690 5692 5694 5695 5696 5697 5697 5698 5698 5698 5699 5700 5701 5701 5702 5703 5703 5704 5705 5705 5705 5706 5706 5706 5706
5690 5695 5691 5682 5667 5661 5671 5686 5686 5686 5688 5691 5691 5690 5687 5677 5676 5672 5673 5677 5680 5682 5683 5682 5684 5686 5688 5689 5690 5691 5692 5692 5693 5693 5694 5694 5695 5696 5696 5697 5698 5698 5699 5699 5700 5700 5701 5701 5702
5687 5690 5679 5671 5665 5664 5671 5680 5680 5682 5685 5684 5680 5679 5675 5668 5669 5666 5667 5672 5674 5676 5676 5676 5678 5680 5681 5682 5683 5684 5685 5686 5687 5687 5688 5688 5689 5690 5691 5691 5692 5692 5693 5693 5694 5695 5695 5696 5696
5682 5677 5673 5662 5660 5670 5674 5675 5677 5675 5676 5677 5673 5666 5663 5661 5660 5660 5663 5665 5667 5668 5669 5669 5671 5673 5674 5675 5677 5678 5679 5680 5680 5681 5681 5682 5683 5684 5684 5685 5685 5686 5687 5687 5688 5689 5689 5690 5691
5676 5666 5657 5654 5658 5668 5672 5674 5674 5668 5666 5666 5665 5658 5651 5651 5654 5655 5656 5658 5659 5659 5660 5661 5663 5665 5667 5668 5670 5671 5672 5672 5673 5674 5674 5675 5676 5677 5677 5678 5679 5680 5680 5681 5681 5682 5683 5684 5685
5662 5659 5648 5648 5656 5665 5665 5667 5666 5661 5659 5658 5656 5651 5642 5645 5646 5646 5648 5649 5651 5651 5652 5653 5655 5657 5659 5661 5662 5663 5664 5665 5666 5667 5668 5668 5669 5669 5670 5671 5672 5673 5674 5674 5675 5676 5677 5678 5679
5652 5649 5645 5650 5651 5655 5658 5661 5656 5652 5649 5647 5649 5643 5636 5637 5638 5639 5640 5641 5642 5642 5643 5644 5646 5648 5650 5652 5654 5655 5656 5657 5659 5660 5661 5661 5662 5662 5663 5664 5665 5666 5667 5668 5668 5669 5670 5671 5672
5650 5644 5643 5644 5645 5647 5652 5651 5648 5644 5640 5643 5642 5635 5628 5628 5630 5631 5631 5631 5632 5633 5633 5635 5636 5639 5641 5643 5645 5647 5648 5650 5651 5652 5653 5654 5655 5655 5656 5657 5658 5659 5660 5661 5661 5662 5664 5665 5666
5647 5633 5631 5636 5637 5639 5643 5639 5637 5637 5633 5632 5629 5624 5622 5622 5622 5621 5621 5621 5622 5623 5624 5626 5627 5629 5632 5634 5636 5638 5640 5642 5643 5644 5645 5647 5647 5648 5649 5649 5650 5652 5653 5654 5654 5655 5657 5658 5659
5634 5623 5627 5632 5632 5631 5632 5629 5628 5626 5623 5620 5617 5615 5614 5613 5611 5610 5610 5610 5611 5612 5614 5616 5618 5620 5622 5624 5627 5629 5631 5633 5635 5636 5637 5639 5640 5641 5642 5642 5643 5644 5645 5646 5647 5648 5650 5651 5652
5627 5620 5624 5625 5625 5623 5621 5620 5621 5616 5611 5611 5609 5605 5604 5602 5600 5599 5599 5600 5600 5601 5603 5605 5607 5610 5612 5615 5617 5620 5622 5624 5626 5628 5629 5631 5632 5633 5634 5634 5635 5636 5637 5639 5640 5641 5642 5643 5645
5618 5616 5618 5615 5614 5612 5611 5611 5609 5606 5602 5604 5604 5601 5596 5593 5590 5589 5589 5589 5590 5591 5592 5594 5597 5599 5602 5605 5607 5610 5613 5616 5618 5620 5621 5623 5624 5625 5626 5627 5628 5628 5629 5631 5632 5634 5635 5636 5637
5610 5609 5609 5607 5604 5603 5602 5599 5597 5596 5596 5597 5596 5591 5587 5585 5582 5580 5580 5580 5581 5581 5581 5583 5585 5588 5591 5594 5597 5600 5604 5607 5609 5610 5612 5614 5616 5616 5618 5618 5620 5621 5622 5623 5624 5626 5627 5628 5629
5605 5603 5601 5600 5598 5596 5592 5590 5588 5589 5590 5588 5584 5580 5578 5576 5574 5572 5571 5570 5570 5571 5571 5572 5574 5577 5580 5583 5586 5589 5593 5597 5599 5601 5603 5605 5607 5608 5609 5610 5611 5612 5613 5615 5616 5617 5619 5620 5620
5599 5593 5593 5594 5593 5591 5585 5580 5580 5583 5582 5579 5576 5573 5570 5568 5566 5565 5563 5561 5560 5560 5561 5562 5564 5566 5569 5573 5576 5579 5582 5586 5589 5591 5593 5595 5597 5599 5600 5601 5602 5603 5605 5606 5607 5608 5610 5610 5611
5591 5586 5583 5588 5587 5584 5574 5570 5578 5577 5574 5570 5568 5566 5562 5561 5559 5556 5554 5552 5551 5551 5550 5552 5554 5555 5558 5562 5565 5568 5571 5576 5579 5581 5583 5585 5587 5589 5590 5592 5593 5594 5596 5597 5598 5599 5600 5600 5601
5581 5577 5579 5579 5579 5575 5568 5565 5570 5569 5567 5564 5562 5559 5556 5553 5550 5548 5546 5544 5542 5542 5541 5542 5544 5545 5548 5551 5555 5558 5561 5565 5568 5570 5572 5574 5576 5578 5580 5582 5583 5585 5587 5587 5588 5589 5590 5590 5591
5567 5569 5571 5568 5568 5564 5558 5558 5562 5561 5559 5557 5555 5552 5550 5546 5543 5540 5538 5535 5533 5532 5532 5532 5534 5535 5537 5541 5544 5547 5550 5554 5557 5558 5560 5562 5564 5567 5569 5571 5573 5575 5576 5577 5577 5579 5579 5580 5581
5562 5558 5557 5560 5560 5553 5550 5552 5555 5555 5552 5550 5547 5545 5542 5538 5535 5532 5529 5526 5524 5523 5523 5524 5525 5526 5528 5531 5533 5535 5538 5542 5545 5547 5549 5551 5553 5555 5557 5559 5561 5563 5564 5566 5567 5568 5569 5569 5571
5554 5549 5549 5551 5552 5544 5540 5543 5550 5551 5548 5545 5541 5537 5533 5529 5526 5523 5520 5517 5515 5514 5514 5515 5516 5517 5519 5522 5524 5525 5527 5531 5534 5535 5537 5539 5541 5544 5546 5547 5549 5551 5553 5554 5555 5557 5558 5558 5560
5544 5538 5536 5532 5534 5538 5532 5535 5546 5548 5543 5539 5534 5530 5526 5521 5517 5514 5511 5508 5507 5506 5505 5507 5508 5509 5510 5512 5514 5515 5518 5521 5523 5524 5525 5527 5529 5532 5533 5535 5537 5539 5541 5542 5543 5545 5546 5546 5547
5532 5532 5527 5522 5514 5516 5525 5512 5535 5538 5533 5528 5521 5517 5514 5512 5509 5505 5502 5499 5498 5497 5496 5497 5498 5499 5500 5501 5504 5506 5508 5512 5514 5515 5516 5517 5518 5519 5521 5523 5525 5527 5528 5530 5532 5533 5535 5536 5535
5522 5523 5518 5514 5507 5504 5514 5503 5520 5529 5522 5516 5511 5507 5504 5502 5499 5496 5493 5490 5489 5487 5486 5487 5488 5489 5490 5492 5494 5496 5499 5502 5504 5505 5505 5506 5506 5507 5509 5511 5512 5514 5516 5517 5519 5521 5522 5524 5525
5516 5514 5511 5504 5500 5494 5510 5502 5509 5512 5511 5510 5505 5499 5495 5492 5489 5487 5485 5482 5480 5478 5477 5477 5477 5478 5480 5481 5482 5485 5488 5490 5491 5492 5493 5493 5494 5495 5497 5499 5500 5502 5503 5505 5507 5508 5510 5511 5512
5507 5498 5494 5493 5492 5501 5506 5496 5498 5507 5507 5502 5496 5491 5486 5482 5479 5476 5475 5472 5470 5468 5466 5466 5467 5469 5470 5471 5472 5474 5476 5479 5479 5480 5481 5482 5483 5484 5485 5486 5488 5489 5491 5492 5494 5495 5497 5498 5499
5498 5494 5482 5478 5486 5494 5491 5485 5497 5501 5495 5491 5486 5481 5477 5473 5469 5467 5464 5462 5459 5458 5457 5457 5457 5459 5460 5460 5461 5463 5466 5467 5469 5470 5471 5472 5473 5473 5474 5474 5476 5477 5478 5480 5481 5483 5484 5486 5487
5490 5484 5483 5471 5465 5459 5479 5493 5493 5491 5484 5477 5472 5468 5463 5461 5458 5455 5453 5451 5449 5448 5447 5446 5447 5448 5449 5450 5451 5453 5455 5456 5457 5458 5459 5460 5461 5462 5462 5463 5464 5465 5466 5467 5469 5470 5472 5473 5475
5480 5478 5468 5462 5457 5461 5481 5485 5480 5475 5467 5464 5458 5454 5453 5450 5448 5445 5443 5440 5439 5438 5437 5437 5437 5437 5437 5438 5440 5443 5443 5444 5445 5446 5447 5448 5449 5450 5450 5451 5452 5453 5454 5455 5456 5458 5459 5460 5462
5468 5465 5461 5459 5457 5450 5453 5471 5474 5467 5460 5453 5448 5445 5443 5440 5437 5435 5433 5431 5429 5428 5427 5426 5425 5425 5426 5427 5429 5430 5431 5432 5433 5434 5435 5436 5437 5438 5439 5440 5440 5441 5442 5443 5444 5446 5447 5448 5450
5462 5458 5451 5443 5444 5443 5440 5453 5460 5454 5448 5444 5439 5437 5434 5430 5426 5424 5423 5421 5419 5418 5416 5416 5415 5415 5416 5416 5417 5418 5419 5420 5421 5422 5423 5424 5426 5427 5427 5428 5429 5430 5431 5432 5433 5434 5435 5436 5438